CIEL-2 (33453 NORAD) Tracking and Keplerian Element Data

This shows tracking and keplerian element data for the satellite.

Feedback or suggestion? Click here.




ElementValue
Catalog33453
NameCIEL-2
Epoch Orbit5524
Epoch Day12.77193096
Epoch Year2024
RAAN92.9027
Inclination0.4693
Eccentricity0.0002594
Argument of Perigee199.7304
Mean Anonmoly328.1606
Mean Motion1.00271575
Decay Rate6.7E-07
L11 33453U 08063A 24012.77193096 .00000067 00000+0 00000+0 0 9997
L22 33453 0.4693 92.9027 0002594 199.7304 328.1606 1.00271575 55244



Live tracking and technical data element details for CIEL-2 (NORAD 33453). CIEL-2 can be tracked NOW for your location showing map with azimuth and elevation plus other details from your city location.







IsCatalogInMostPopularTable: catalog: 33453, numindb: 394
Update: records affected: 1



GetName: 33453 CIEL-2

Hit Count: updated at: Thu, 21 May 2026 10:31:54 GMT